GEFSSE_500_meanwind_078.txt.gz
Wind_Speed
8 8 8 8 8 8 8 9 10 11 11 12 12 11 11 11 11 10 10 9 9 8 8 7 7 6 5 5 5 5 5 5 5 5 5 5 6 6 6 6 6 6 5
10 10 9 9 9 9 9 9 10 10 11 11 12 12 12 12 11 11 10 10 9 8 8 8 7 6 5 5 5 4 4 4 3 3 3 3 4 4 5 5 5 5 4
11 11 10 10 10 10 10 10 10 11 11 12 12 12 13 13 12 12 11 10 9 9 8 8 7 7 6 5 5 4 4 3 3 2 2 2 2 3 3 3 4 4 3
12 11 11 11 11 11 10 10 10 11 12 12 13 13 13 13 13 12 12 11 10 9 9 8 8 7 7 6 6 5 5 4 3 2 1 1 1 1 2 2 2 3 3
13 12 12 12 11 11 11 11 11 12 13 13 14 14 14 14 13 13 13 12 11 11 10 10 9 9 8 7 7 7 6 5 5 4 3 2 1 1 0 0 1 2 2
13 12 12 12 12 12 12 13 13 13 14 14 15 15 15 15 15 15 14 13 13 12 12 11 11 11 10 10 10 9 8 7 7 6 5 4 3 2 2 1 1 0 1
14 14 13 13 13 13 13 14 14 15 16 16 17 17 17 17 17 16 16 15 15 14 14 13 13 13 13 12 12 12 11 10 9 8 7 7 6 5 4 3 3 2 2
15 15 14 14 14 14 15 16 17 17 18 18 19 19 19 19 19 18 18 17 16 16 16 15 15 15 15 15 15 15 14 13 12 11 10 9 8 7 6 5 5 4 4
16 16 16 16 16 16 17 17 18 19 20 20 21 21 21 21 21 20 20 19 19 18 18 18 17 17 17 17 17 17 17 16 15 14 13 12 11 10 9 8 7 6 6
19 18 18 18 18 18 18 18 20 21 21 21 22 23 23 23 24 23 23 22 22 21 20 19 19 19 19 18 19 19 19 19 18 16 15 14 14 12 12 11 10 9 9
21 20 20 20 20 21 20 21 22 22 23 23 24 25 25 27 27 27 26 26 25 24 22 21 22 21 20 20 20 20 20 20 20 19 17 16 16 15 15 14 13 12 11
23 23 22 22 23 23 24 24 25 25 25 26 26 27 28 29 30 30 29 29 28 27 25 24 24 23 22 22 22 22 23 23 22 20 19 19 18 17 17 16 16 15 14
25 25 25 25 25 26 27 27 28 28 28 29 30 30 31 32 31 32 32 31 31 31 29 28 27 25 24 24 24 24 24 24 24 23 21 21 21 20 19 19 18 17 17
27 28 28 28 28 29 30 30 30 31 32 32 32 33 33 34 33 33 34 34 33 33 32 32 30 28 27 26 25 25 25 25 24 24 22 22 22 22 21 21 20 20 20
28 29 30 30 31 32 33 33 33 34 34 35 35 35 35 36 35 35 35 36 35 35 35 33 32 30 29 28 27 26 26 26 26 25 23 21 22 22 21 22 22 21 21
30 31 31 32 33 33 34 35 36 37 38 38 37 36 38 39 38 37 37 38 37 38 37 35 34 32 30 29 28 26 27 27 27 25 24 23 22 22 22 22 22 22 22
32 32 33 33 34 35 36 37 39 39 39 40 39 39 40 41 40 38 38 38 38 39 37 35 33 33 31 31 29 28 27 26 28 27 26 24 23 23 23 22 22 22 22
32 33 33 34 34 36 37 38 39 40 40 40 41 40 41 41 40 39 38 37 37 36 36 34 32 33 33 32 30 29 28 28 27 26 27 26 25 24 24 23 22 23 23
32 33 34 35 36 37 38 39 40 40 40 40 40 41 40 40 39 38 37 37 37 36 36 34 33 32 32 33 32 30 30 29 27 27 27 26 26 24 23 23 22 22 22
30 32 34 36 37 38 39 40 40 41 41 41 41 40 40 39 37 36 35 36 35 34 34 33 31 30 31 32 32 30 29 29 28 28 28 27 26 24 23 23 22 22 21
29 31 32 34 36 37 39 39 39 40 40 40 40 39 39 38 37 35 34 33 33 33 32 33 31 29 30 31 31 30 30 29 29 29 27 27 26 24 24 22 22 22 22
29 31 32 34 35 36 37 39 40 40 40 39 39 39 38 38 37 36 34 33 33 33 32 32 31 30 30 31 31 31 30 30 30 29 29 28 28 26 24 23 23 22 22
29 31 33 34 35 37 38 39 40 41 40 41 40 40 39 39 38 37 37 37 36 35 34 32 31 30 30 30 31 32 32 31 29 29 29 30 29 28 27 26 24 23 22
30 32 33 35 37 39 40 40 40 41 42 42 42 41 41 40 40 40 40 39 37 36 36 34 34 33 31 31 32 33 33 32 31 30 30 30 30 30 29 27 26 25 24
31 33 35 36 38 39 40 41 42 42 43 44 44 44 43 43 42 41 41 40 40 39 37 36 35 35 34 34 33 33 33 35 34 32 31 31 30 31 30 29 28 27 25
33 35 36 37 38 39 41 42 43 44 45 45 46 46 46 45 45 44 43 42 42 41 41 40 39 38 37 37 36 35 35 36 36 35 34 32 31 32 32 32 30 29 27

GEFSSE_500_meanwind_084.txt.gz
Wind_Speed
9 9 9 8 8 8 8 8 8 8 8 9 9 9 10 10 10 10 10 10 9 9 8 8 8 8 7 6 6 5 5 5 5 6 6 6 7 8 8 9 9 10 10
9 9 9 9 8 7 7 7 7 7 7 7 8 8 8 9 9 9 9 9 9 9 8 8 7 7 6 6 5 4 4 4 4 4 4 5 6 6 7 8 8 9 9
9 10 9 9 8 8 8 7 7 7 7 7 7 8 8 8 8 9 9 9 9 9 8 8 7 7 6 5 5 4 3 3 2 3 3 3 4 5 6 6 7 8 9
9 9 9 8 8 8 8 8 8 8 7 8 8 8 8 8 8 8 8 8 8 9 8 8 8 7 7 6 5 4 3 3 1 1 1 2 2 3 4 5 6 7 8
9 9 9 8 8 8 8 9 9 8 8 8 8 8 8 8 8 9 9 9 9 9 9 9 9 9 8 7 6 5 5 4 3 2 1 1 1 2 3 4 5 6 7
10 10 9 9 9 9 10 10 10 9 10 10 10 9 9 9 9 9 10 10 10 10 10 10 10 10 10 9 8 7 6 5 5 4 3 2 2 2 3 4 4 5 6
11 11 11 11 11 10 10 10 10 10 10 10 11 11 11 11 11 11 11 11 11 11 11 11 12 12 11 11 10 9 8 7 7 6 5 4 4 4 4 4 5 6 6
11 11 12 12 11 12 12 11 11 11 11 12 12 12 12 12 13 12 12 12 12 12 12 13 13 14 14 13 13 12 11 10 9 9 7 7 7 7 6 6 6 6 7
11 11 12 12 12 12 12 12 12 12 13 14 14 14 14 14 14 14 14 14 14 14 14 14 15 15 16 15 15 14 13 12 12 11 10 10 9 9 9 8 8 8 8
12 12 12 13 13 13 14 14 14 14 15 15 16 17 17 17 17 17 17 17 17 17 17 17 17 17 18 18 18 17 16 15 14 13 13 13 12 11 11 11 10 10 9
14 13 13 14 15 15 16 16 17 17 17 18 19 19 20 20 20 20 20 20 20 19 19 19 19 19 20 20 20 20 19 18 17 15 15 15 14 13 14 13 13 12 12
16 15 15 16 16 17 18 18 19 20 20 21 21 22 22 22 23 24 24 24 23 22 21 21 21 21 21 22 22 22 22 21 19 18 17 18 17 16 16 16 16 15 14
19 17 17 16 17 19 20 21 21 22 22 23 23 24 25 25 25 26 26 25 24 23 23 23 22 23 23 23 23 24 24 23 22 21 20 20 20 19 18 18 18 17 17
20 18 16 18 19 20 22 23 24 24 25 26 27 28 28 27 27 28 28 27 25 25 25 25 25 25 25 25 25 25 26 25 25 23 22 22 22 21 21 21 20 19 19
21 20 20 20 20 21 23 25 26 26 26 27 28 30 30 30 30 30 30 29 28 28 28 28 28 27 26 26 27 27 27 27 27 26 25 24 23 23 23 24 23 22 21
21 20 20 21 22 23 25 26 26 27 27 28 29 31 32 32 32 32 32 31 30 30 29 29 28 28 28 27 27 29 29 28 28 28 28 27 25 24 23 24 24 23 23
23 22 21 23 24 26 27 28 28 29 29 30 32 33 34 33 33 33 32 32 31 30 30 29 29 28 28 28 27 28 30 30 30 30 28 28 28 27 25 24 25 25 24
23 23 24 25 26 27 28 30 30 30 31 32 33 34 35 34 33 33 32 32 32 32 31 31 29 29 28 29 28 27 28 31 30 30 30 29 29 28 27 26 26 26 26
23 23 24 25 27 28 28 28 30 31 33 34 35 36 36 35 34 33 32 32 33 32 31 29 29 29 28 29 29 27 28 30 31 31 31 30 31 30 28 27 28 27 27
22 23 24 26 27 29 29 29 31 32 34 35 36 37 36 35 35 35 34 32 32 31 31 30 29 29 28 29 29 27 27 29 31 31 31 31 31 30 28 29 28 28 28
21 22 24 26 27 28 29 31 32 33 35 36 37 37 38 37 36 36 35 33 32 32 31 31 31 30 30 29 29 28 27 28 30 31 31 31 31 30 30 28 29 29 29
21 23 25 26 28 29 30 32 34 35 36 37 38 38 37 38 37 37 35 34 34 33 32 32 31 31 31 31 30 29 28 28 29 30 31 31 30 30 29 28 29 29 30
22 24 26 28 29 31 32 33 35 36 37 37 38 38 38 37 37 36 36 36 35 35 34 33 32 32 32 32 32 31 29 29 29 29 30 31 31 30 30 30 30 30 30
21 23 26 27 29 30 32 33 34 35 36 37 38 38 39 38 38 39 38 38 37 36 35 34 33 33 32 32 31 31 30 29 29 30 31 31 30 30 30 31 30 30 30
22 24 25 27 28 29 31 32 34 35 37 38 38 39 40 40 39 39 39 39 38 38 37 37 36 35 34 34 33 33 32 32 31 31 32 32 31 31 32 32 32 31 31
23 25 26 27 29 30 31 33 34 36 37 38 39 40 40 40 40 39 39 38 38 38 37 37 37 36 36 35 35 35 35 34 34 33 33 33 33 33 34 33 33 33 33

GEFSSE_500_meanwind_090.txt.gz
Wind_Speed
7 7 7 7 7 7 7 7 7 7 7 7 6 7 7 7 8 8 8 8 8 8 8 8 8 7 7 7 6 6 6 6 6 6 6 6 6 6 6 7 8 8 9
7 7 7 6 6 6 6 6 6 6 6 5 5 5 5 6 6 6 7 6 6 6 6 6 6 6 6 5 5 5 4 4 4 5 5 5 6 6 6 6 7 8 9
8 7 7 6 6 5 5 6 6 6 5 5 5 5 5 5 5 5 6 6 6 5 5 5 5 5 4 4 4 3 3 2 3 3 4 4 5 5 6 6 7 8 9
8 8 8 7 6 6 6 6 6 6 6 6 6 6 6 6 6 6 6 6 6 6 5 5 4 4 4 3 3 2 1 1 2 2 3 3 4 5 5 6 7 8 8
9 9 9 8 7 7 7 7 6 6 6 7 7 8 8 8 8 8 8 8 7 7 6 5 5 4 4 4 3 2 1 2 2 2 3 3 4 5 5 6 6 7 8
11 11 10 9 8 8 8 7 7 7 7 8 8 8 9 9 9 9 9 9 8 8 8 8 7 6 6 5 5 4 4 4 4 4 4 4 5 5 6 6 6 7 7
12 12 12 11 10 9 8 8 8 9 9 9 9 9 9 10 10 10 10 10 10 10 10 10 9 9 9 8 7 7 6 6 6 6 6 6 6 6 6 7 7 7 7
13 14 15 13 12 11 10 9 9 9 9 9 10 10 10 11 11 12 12 12 12 12 13 13 12 12 12 11 10 9 9 9 8 8 8 8 8 8 8 8 8 8 8
16 16 16 14 14 13 12 12 11 10 10 10 11 11 12 12 13 13 14 14 14 15 15 15 15 15 15 15 14 12 12 12 11 10 10 10 10 10 10 9 9 9 9
18 18 18 16 15 15 15 14 14 13 12 12 12 13 13 14 15 15 16 16 17 17 17 18 18 18 17 17 17 16 15 14 14 13 13 12 12 12 12 12 11 11 11
21 20 19 18 17 18 17 17 16 16 15 15 15 16 16 17 17 18 18 19 19 19 19 19 20 20 20 20 19 18 18 17 16 16 15 15 14 14 14 14 14 13 13
22 21 20 20 20 20 20 20 19 18 18 18 18 19 19 20 20 20 20 21 21 22 21 21 21 21 22 22 21 19 19 20 20 19 18 17 17 16 16 16 16 16 16
22 21 22 22 22 23 22 21 22 22 21 21 21 22 22 22 22 22 22 23 23 23 23 23 23 23 24 23 23 21 20 20 22 22 21 20 20 19 19 18 18 19 18
21 22 22 23 24 24 24 24 24 25 24 23 24 24 23 23 24 24 25 25 25 25 26 26 26 25 25 25 24 23 22 22 23 24 24 24 23 22 21 21 21 21 21
21 21 22 22 23 23 24 24 23 24 23 23 23 24 24 25 26 25 26 26 27 27 28 28 28 27 27 27 27 26 25 23 24 26 27 26 25 24 24 24 23 23 23
21 21 22 22 22 23 21 22 22 22 23 24 24 24 25 25 26 27 28 28 28 29 28 28 28 28 29 28 28 28 27 26 25 26 28 28 28 27 26 26 26 25 26
19 20 21 19 19 19 20 22 23 23 24 24 24 25 26 27 28 29 29 28 29 29 29 29 28 29 29 28 29 29 29 28 27 27 28 29 29 29 28 27 27 28 28
19 19 18 18 17 18 20 21 22 24 24 24 26 27 27 28 28 29 30 30 29 28 28 29 28 29 29 29 29 28 28 27 27 27 29 30 30 30 31 30 29 30 29
18 17 17 17 18 19 21 22 23 23 24 25 27 28 29 30 30 31 31 31 31 31 30 30 29 29 29 29 28 28 27 27 27 27 29 31 32 32 32 32 31 31 31
15 16 16 18 19 21 22 23 24 25 26 27 28 29 30 31 32 32 33 33 33 33 32 32 32 30 30 29 29 28 28 29 29 28 29 30 32 33 33 33 33 32 32
15 16 17 18 20 22 23 25 26 27 28 29 30 31 32 33 33 33 33 34 34 34 33 33 32 31 31 30 30 29 29 29 30 31 30 30 31 33 35 34 34 34 34
15 16 17 19 21 23 24 26 28 29 30 31 32 32 33 33 33 34 34 34 34 34 34 34 33 33 32 33 32 31 31 31 31 31 31 31 31 33 35 35 35 35 35
15 17 18 20 22 24 26 27 29 30 31 32 33 33 34 34 34 35 35 35 35 35 35 35 35 35 34 35 34 33 32 32 32 32 32 33 33 33 34 36 37 37 37
16 17 19 21 23 25 27 29 30 31 32 33 34 34 35 35 35 36 36 36 36 36 37 37 37 36 36 36 36 35 34 33 34 33 33 34 35 34 34 35 36 37 38
17 19 20 22 24 26 28 30 31 32 33 34 34 35 35 36 36 36 36 37 37 37 37 38 38 38 37 37 37 37 36 36 36 35 34 34 36 36 35 35 36 36 38
17 19 21 23 25 27 29 30 31 32 33 33 34 34 35 35 36 36 36 36 36 36 36 36 36 37 37 37 38 39 38 38 37 37 35 35 36 37 37 36 36 36 38

GEFSSE_500_meanwind_096.txt.gz
Wind_Speed
3 3 3 2 2 3 3 3 3 2 2 2 2 3 3 4 4 5 5 5 5 5 5 5 5 5 4 4 4 4 5 5 5 5 5 5 5 5 5 5 5 6 7
2 3 3 2 2 3 4 5 5 4 2 2 1 1 1 2 2 2 3 3 3 3 3 3 3 3 3 3 3 3 4 4 4 4 4 4 4 4 4 5 5 6 7
3 3 3 3 4 4 5 6 6 5 4 3 2 2 1 1 0 0 1 1 1 1 1 0 1 1 1 2 2 3 3 4 4 4 4 4 4 4 4 4 5 5 6
3 4 5 5 6 6 7 8 7 7 6 5 4 4 3 3 2 2 2 2 2 2 2 2 2 2 1 1 2 3 3 4 4 4 4 4 4 4 4 4 4 5 6
4 5 6 7 7 8 8 9 9 8 7 6 6 5 5 4 4 4 4 4 4 4 4 4 4 4 4 3 3 4 4 5 5 5 5 5 5 5 5 5 5 5 6
6 7 8 9 9 10 10 10 10 10 9 8 8 7 7 6 6 5 5 5 5 6 6 6 6 6 6 6 6 6 6 6 7 7 7 7 6 6 6 6 6 6 6
8 9 9 10 11 12 12 12 12 11 11 10 10 9 8 8 8 7 7 7 7 7 7 7 8 8 8 8 8 8 8 9 9 9 9 8 8 8 8 8 8 7 7
10 11 12 12 13 13 13 14 13 13 13 12 12 11 11 10 10 9 9 9 9 9 9 9 9 10 10 11 11 10 10 11 11 11 11 11 10 10 10 10 9 9 9
12 13 13 14 15 15 15 15 15 15 15 14 14 14 13 12 12 11 11 11 11 10 11 11 11 11 12 12 13 13 13 13 13 13 13 13 13 13 12 12 12 11 11
14 15 15 15 16 16 16 17 17 18 17 17 17 16 16 16 15 15 14 13 13 13 13 13 13 13 13 14 14 15 15 15 15 16 16 15 15 15 15 15 14 14 13
17 17 17 17 18 18 18 18 19 21 21 20 20 20 19 19 19 18 18 17 16 15 15 15 15 15 15 15 16 16 17 18 18 18 18 18 17 17 17 17 16 16 15
19 19 19 19 19 19 20 20 21 23 23 23 23 23 23 23 22 22 21 20 19 18 18 17 17 17 17 17 17 17 18 20 20 20 20 20 20 20 19 19 19 18 18
21 20 20 21 20 21 21 22 22 23 24 25 26 25 25 25 24 24 24 22 21 21 20 20 20 20 20 20 19 19 20 21 22 23 22 21 22 23 22 22 21 21 20
21 21 22 22 21 22 22 22 22 22 23 24 24 26 28 26 25 26 25 24 23 23 22 22 21 21 22 22 22 21 20 22 22 23 25 25 25 25 25 24 24 23 22
21 22 21 22 22 22 23 22 22 23 24 23 23 23 25 25 25 25 27 26 25 25 24 24 23 23 23 23 23 22 23 22 23 23 24 26 27 28 28 28 27 26 25
22 22 21 22 22 21 21 22 22 22 22 23 23 22 24 25 25 26 26 26 25 25 24 24 24 24 25 25 24 23 23 24 25 25 25 26 27 29 30 30 29 29 28
22 22 22 22 21 20 19 19 20 21 22 22 23 23 24 24 24 24 24 24 24 24 25 25 25 25 25 25 25 26 26 25 26 26 27 27 27 30 32 32 32 32 31
22 22 21 19 18 16 16 16 18 19 20 20 21 22 23 24 25 25 26 26 26 26 26 26 27 27 26 25 25 26 27 27 27 27 28 29 29 29 32 33 33 33 33
20 19 18 16 14 14 14 14 16 17 18 20 21 21 23 24 25 26 27 28 29 29 28 29 29 28 28 28 27 28 28 28 28 28 28 29 30 31 32 34 35 35 34
17 16 14 13 13 13 14 15 16 17 19 20 21 22 22 23 24 26 27 28 30 31 31 31 31 31 31 30 30 30 30 30 30 30 30 30 30 32 33 34 35 36 36
14 13 12 12 13 14 15 16 17 18 20 21 22 23 24 25 26 26 27 28 29 31 31 32 32 32 33 33 33 32 32 33 32 32 31 31 30 32 33 34 35 36 37
13 12 12 13 14 15 16 17 19 20 21 22 24 24 26 27 27 27 28 29 29 30 31 32 33 33 33 34 34 33 34 34 34 33 33 33 33 33 34 34 37 37 37
11 11 12 13 15 16 18 19 21 22 23 24 25 26 26 27 28 28 29 30 30 31 31 32 32 33 34 34 34 34 35 35 35 35 35 35 35 35 35 36 37 38 39
10 12 13 15 17 18 20 22 23 24 25 26 26 27 28 28 29 29 30 30 30 31 31 32 32 33 34 35 35 36 36 36 37 36 36 37 38 37 37 38 38 39 40
11 13 15 16 18 20 21 23 24 25 26 26 27 28 29 29 30 30 30 30 30 31 31 32 32 33 34 35 36 36 37 37 38 38 38 39 39 39 39 39 39 40 41
13 14 16 18 19 21 22 24 25 26 26 27 28 29 30 30 30 30 30 31 31 31 32 32 33 34 35 35 36 36 37 38 39 40 40 40 40 40 41 41 40 40 41

GEFSSE_500_meanwind_102.txt.gz
Wind_Speed
5 4 3 3 3 3 4 5 6 6 5 5 5 4 4 4 3 3 2 2 2 2 2 3 3 3 3 2 2 2 3 3 4 4 4 5 5 6 6 6 6 7 7
7 5 5 5 5 5 5 6 7 7 7 6 6 6 6 5 4 4 4 3 3 2 2 3 2 2 2 2 2 1 1 2 2 3 3 3 4 5 5 6 6 6 6
8 7 7 7 7 6 7 7 7 7 8 8 8 7 7 6 6 5 5 5 4 4 3 3 3 3 2 2 2 2 1 1 1 1 2 2 3 3 4 5 5 6 6
8 8 8 8 8 8 8 9 9 9 9 9 9 8 8 7 7 7 6 6 6 5 5 4 4 4 3 3 3 3 2 2 1 1 0 1 1 2 3 4 4 5 5
9 9 9 9 9 9 10 10 10 10 10 10 10 9 9 9 9 8 8 7 7 7 6 6 6 5 5 4 4 4 4 4 3 3 2 1 1 1 2 2 3 4 4
10 11 10 11 11 11 11 11 12 12 11 11 11 11 10 10 10 10 9 9 9 8 8 7 7 7 7 7 7 6 6 6 5 5 4 4 3 2 2 2 2 3 3
11 11 12 12 12 13 13 13 13 13 13 13 12 12 12 12 12 11 11 10 10 10 9 9 9 9 9 9 9 8 8 7 7 7 6 6 5 4 3 3 2 3 3
12 13 14 13 14 14 14 15 15 15 15 15 15 14 14 13 13 13 12 12 11 11 11 11 11 11 11 11 11 11 10 9 9 8 8 8 7 6 5 4 4 4 4
14 14 15 16 16 16 16 17 17 16 17 17 17 17 17 16 16 15 14 14 14 13 13 13 13 13 13 13 13 12 12 12 12 11 10 9 9 8 7 7 6 6 5
16 16 17 17 17 18 18 17 17 18 19 19 20 20 20 20 19 18 17 17 16 16 16 15 15 14 14 14 14 14 14 14 14 13 12 12 11 11 10 9 9 8 8
17 18 18 19 20 19 18 17 17 18 19 21 22 22 23 23 22 21 21 20 19 18 18 18 17 16 16 16 16 16 16 16 16 15 14 14 14 13 13 12 11 11 10
18 19 20 20 21 20 20 19 19 19 20 22 22 23 24 25 24 23 23 22 21 21 20 20 20 19 19 18 18 18 18 18 18 17 16 17 17 16 15 15 14 13 13
20 21 20 21 22 21 21 21 20 21 21 22 23 24 25 25 26 25 24 24 23 22 22 22 22 22 21 21 20 20 20 19 19 19 18 19 19 19 18 18 17 16 16
20 20 21 22 22 22 21 20 19 21 22 22 23 23 24 24 24 24 25 25 24 22 22 22 23 22 22 22 21 21 21 21 21 20 19 20 20 20 21 20 19 19 19
20 21 21 20 20 20 20 19 20 21 21 22 22 22 23 24 22 22 23 23 22 22 22 23 23 23 23 23 22 22 22 22 23 22 20 21 22 22 24 23 22 22 22
19 19 19 19 20 20 19 19 20 20 20 20 20 20 21 20 19 20 20 21 21 21 21 22 23 23 24 23 23 23 23 23 24 24 23 22 23 24 24 25 25 25 25
21 20 19 19 20 20 19 20 19 18 17 18 18 18 19 18 19 19 19 21 22 22 22 23 24 24 24 24 24 23 24 24 23 24 24 23 23 24 25 26 28 27 27
21 21 20 19 19 19 19 18 17 16 15 16 17 17 17 17 18 19 20 21 21 21 22 22 23 23 24 25 25 25 25 24 25 25 25 25 24 25 26 27 28 29 30
20 20 19 18 17 16 16 15 14 14 15 16 16 17 17 18 19 20 20 21 22 22 23 23 23 24 25 26 26 26 26 26 26 26 26 27 27 26 27 28 28 29 31
18 18 17 17 15 14 13 13 13 14 15 16 17 18 18 19 20 20 21 21 23 24 24 25 26 26 27 28 29 29 28 28 28 28 28 28 28 28 28 28 29 29 30
16 16 16 14 13 13 12 13 14 15 16 17 18 18 19 20 21 21 22 23 24 25 26 27 27 27 28 29 30 30 30 30 30 29 29 30 30 30 30 29 29 29 30
13 13 13 12 12 11 12 14 15 16 16 18 19 19 20 21 21 22 22 23 25 26 26 27 28 28 29 30 30 30 31 31 32 31 31 31 31 31 31 31 30 30 30
9 10 10 10 10 11 12 14 15 17 18 19 20 20 21 22 22 23 24 24 25 26 27 27 27 28 29 29 30 30 30 31 32 32 33 33 33 33 32 33 32 31 31
9 9 10 10 10 12 13 15 17 18 19 20 21 21 22 22 23 24 24 25 25 26 26 26 26 27 28 29 30 30 30 31 32 32 33 33 33 33 34 34 33 33 33
8 8 9 10 11 13 15 16 18 19 20 20 21 22 23 24 24 24 24 25 25 26 26 26 26 27 28 29 30 31 31 32 32 33 34 35 35 34 35 35 35 35 34
8 8 9 11 13 14 16 17 19 20 20 21 22 23 24 24 24 24 24 25 25 26 26 26 27 28 29 29 30 31 32 32 33 34 35 35 36 36 36 36 36 36 36